Location: Aalen
(48.8330°N, 10.1000°E)
Time: 18:22:42
(UTC+01:00)

UWE-3 - Pass Details

Date: 12 October 2025
Orbit: 548 x 618 km, 97.8° (Epoch: 12 November)

Event Time Altitude Azimuth Distance (km) Brightness Sun altitude
Rises 04:39:43 0° 7° (N) 2,754 ? -29.1°
Reaches altitude 10° 04:41:55 10° 1° (N) 1,863 ? -28.8°
Enters shadow 04:42:25 13° 358° (N) 1,673 ? -28.7°
